San Francisco, CA

8:26 PM PST on December 08, 2019 (GMT -0800)
San Francisco International

Weather History for KSFO - May, 2019

Change the Weather History Date:

Saturday, May 4, 2019

  Actual Average Record
Temperature  
Mean Temperature 57 °F 59 °F  
Max Temperature 64 °F 67 °F 84 °F (2011)
Min Temperature 49 °F 51 °F 40 °F (1952)
Degree Days  
Heating Degree Days 8 7  
Month to date heating degree days 25 28  
Since 1 July heating degree days 2144 2396  
Cooling Degree Days 0 0  
Month to date cooling degree days 0 0  
Year to date cooling degree days 9 6  
Growing Degree Days 6 (Base 50)    
Moisture  
Dew Point 45 °F    
Average Humidity 69    
Maximum Humidity 86    
Minimum Humidity 52    
Precipitation  
Precipitation 0.00 in 0.03 in 0.48 in (1998)
Month to date precipitation 0.00 0.10  
Year to date precipitation 16.43 12.60  
Sea Level Pressure  
Sea Level Pressure 29.91 in    
Wind  
Wind Speed 12 mph (West)    
Max Wind Speed 23 mph    
Max Gust Speed 30 mph    
Visibility 10 miles    
Events      
T = Trace of Precipitation, MM = Missing Value Source: NWS Daily Summary

Daily Weather History Graph

Daily Weather History Graph

Search for Another Location

Airport or City:

Astronomy

May. 04, 2019 Rise Set
Actual Time 6:10 AM PDT 8:02 PM PDT
Civil Twilight 5:42 AM PDT 8:30 PM PDT
Nautical Twilight 5:08 AM PDT 9:05 PM PDT
Astronomical Twilight 4:31 AM PDT 9:42 PM PDT
Moon 6:23 AM PDT (5/4) 7:58 PM PDT (5/4)
Length of Visible Light 14h 48m
Length of Day
13h 51m
Waning Crescent, 0% of the Moon is Illuminated
May 4
Waning Crescent
May 4
New
May 11
First Quarter
May 18
Full
May 26
Last Quarter

Hourly Weather History & Observations

Time (PDT) Temp. Dew Point Humidity Pressure Visibility Wind Dir Wind Speed Gust Speed Precip Events Conditions
12:56 AM 48.9 °F 45.0 °F 86% 29.95 in 10.0 mi West 10.4 mph - N/A   Partly Cloudy
1:56 AM 50.0 °F 45.0 °F 83% 29.94 in 10.0 mi West 10.4 mph - N/A   Partly Cloudy
2:56 AM 51.1 °F 44.1 °F 77% 29.93 in 10.0 mi West 8.1 mph - N/A   Partly Cloudy
3:56 AM 50.0 °F 44.1 °F 80% 29.93 in 10.0 mi West 6.9 mph - N/A   Partly Cloudy
4:56 AM 50.0 °F 45.0 °F 83% 29.93 in 10.0 mi West 8.1 mph - N/A   Partly Cloudy
5:56 AM 50.0 °F 44.1 °F 80% 29.93 in 10.0 mi WSW 5.8 mph - N/A   Scattered Clouds
6:18 AM 50.0 °F 44.1 °F 80% 29.93 in 10.0 mi West 5.8 mph - N/A   Mostly Cloudy
6:56 AM 50.0 °F 45.0 °F 83% 29.94 in 10.0 mi Variable 3.5 mph - N/A   Mostly Cloudy
7:56 AM 52.0 °F 45.0 °F 77% 29.94 in 10.0 mi SSW 4.6 mph - N/A   Mostly Cloudy
8:56 AM 54.0 °F 45.0 °F 72% 29.94 in 10.0 mi WNW 5.8 mph - N/A   Mostly Cloudy
9:56 AM 57.0 °F 46.0 °F 67% 29.94 in 10.0 mi NW 8.1 mph - N/A   Mostly Cloudy
10:19 AM 57.9 °F 46.0 °F 65% 29.93 in 10.0 mi WNW 9.2 mph - N/A   Scattered Clouds
10:56 AM 59.0 °F 46.9 °F 64% 29.93 in 10.0 mi NW 13.8 mph 19.6 mph N/A   Scattered Clouds
11:56 AM 62.1 °F 46.9 °F 58% 29.92 in 10.0 mi NW 16.1 mph - N/A   Scattered Clouds
12:56 PM 62.1 °F 46.9 °F 58% 29.90 in 10.0 mi WNW 18.4 mph - N/A   Partly Cloudy
1:56 PM 64.0 °F 46.0 °F 52% 29.88 in 10.0 mi WNW 17.3 mph - N/A   Partly Cloudy
2:56 PM 63.0 °F 46.0 °F 54% 29.88 in 10.0 mi West 21.9 mph - N/A   Scattered Clouds
3:56 PM 62.1 °F 46.0 °F 56% 29.88 in 10.0 mi West 18.4 mph - N/A   Scattered Clouds
4:56 PM 60.1 °F 46.0 °F 60% 29.88 in 10.0 mi West 15.0 mph 21.9 mph N/A   Partly Cloudy
5:56 PM 59.0 °F 45.0 °F 60% 29.87 in 10.0 mi West 17.3 mph - N/A   Partly Cloudy
6:56 PM 55.9 °F 45.0 °F 67% 29.86 in 10.0 mi West 15.0 mph - N/A   Partly Cloudy
7:56 PM 53.1 °F 45.0 °F 74% 29.86 in 10.0 mi West 15.0 mph - N/A   Partly Cloudy
8:56 PM 54.0 °F 44.1 °F 69% 29.87 in 10.0 mi West 11.5 mph - N/A   Scattered Clouds
9:13 PM 52.0 °F 45.0 °F 77% 29.87 in 10.0 mi West 11.5 mph - N/A   Mostly Cloudy
9:41 PM 54.0 °F 44.1 °F 69% 29.88 in 10.0 mi West 13.8 mph - N/A   Scattered Clouds
9:56 PM 54.0 °F 44.1 °F 69% 29.88 in 10.0 mi West 10.4 mph - N/A   Scattered Clouds
10:56 PM 52.0 °F 44.1 °F 74% 29.88 in 10.0 mi WSW 8.1 mph - N/A   Partly Cloudy
11:56 PM 51.1 °F 44.1 °F 77% 29.88 in 10.0 mi SW 8.1 mph - N/A   Partly Cloudy